Location: Ipswich
(52.0579°N, 1.1528°E)
Time: 09:32:37
(UTC+01:00)

ISS - Pass Details

Date: 07 May 2026
Orbit: 414 x 424 km, 51.6° (Epoch: 8 May)

Event Time Altitude Azimuth Distance (km) Brightness Sun altitude
Exits shadow 03:52:36 - 278° (W) 1,911 -0.8 -10.8°
Reaches altitude 10° 03:53:41 10° 271° (W) 1,498 -1.3 -10.7°
Maximum altitude 03:56:40 29° 209° (SSW) 793 -2.9 -10.4°
Drops below altitude 10° 03:59:38 10° 147° (SSE) 1,497 -1.1 -10.0°
Sets 04:01:53 0° 136° (SE) 2,360 0.1 -9.8°
